Location: Oshawa
(43.9000°N, 78.8670°W)
Time: 04:25:06
(UTC-04:00)

Cosmos 1707 Rocket - Visible Passes

Search period start: 26 August 2016 00:00
Search period end: 05 September 2016 00:00
Orbit: 606 x 631 km, 82.5° (Epoch: 25 August)

Date Brightness Start Highest point End Pass type
(mag) Time Alt. Az. Time Alt. Az. Time Alt. Az.
26 Aug 6.2 02:39:55 14° E 02:39:55 14° E 02:42:05 10° NE visible
26 Aug 3.7 04:17:05 54° WNW 04:17:05 54° WNW 04:21:27 10° N visible
27 Aug 5.6 02:57:25 24° ENE 02:57:25 24° ENE 03:00:23 10° NNE visible
27 Aug 4.6 04:34:35 30° WNW 04:34:35 30° WNW 04:38:25 10° NNW visible
28 Aug 4.9 03:14:53 38° NE 03:14:53 38° NE 03:18:06 10° NNE visible
28 Aug 5.3 04:52:03 18° WNW 04:52:03 18° WNW 04:55:00 10° NNW visible
29 Aug 4.5 03:32:20 46° NNE 03:32:20 46° NNE 03:35:32 10° N visible
29 Aug 5.8 05:09:30 10° WNW 05:09:34 10° WNW 05:09:56 10° WNW visible
30 Aug 6.4 02:12:37 13° ENE 02:12:37 13° ENE 02:13:30 10° NE visible
30 Aug 4.7 03:49:47 36° NNW 03:49:47 36° NNW 03:52:44 10° N visible
31 Aug 6.1 02:30:02 19° NE 02:30:02 19° NE 02:31:44 10° NNE visible
31 Aug 5.2 04:07:12 24° NW 04:07:12 24° NW 04:09:40 10° NNW visible
01 Sep 5.7 02:47:27 24° NNE 02:47:27 24° NNE 02:49:26 10° NNE visible
01 Sep 5.7 04:24:36 15° NW 04:24:36 15° NW 04:26:13 10° NNW visible
02 Sep 5.6 03:04:50 26° N 03:04:50 26° N 03:06:50 10° N visible
03 Sep 5.6 03:22:13 23° NNW 03:22:13 23° NNW 03:24:01 10° N visible
04 Sep 6.5 02:02:25 13° NE 02:02:25 13° NE 02:03:04 10° NNE visible
04 Sep 5.8 03:39:35 17° NNW 03:39:35 17° NNW 03:40:55 10° NNW visible
